カタログに戻る

CZ-6A DEB

運用中PO
NORAD 60767·DEBRIS·🇨🇳 China

打ち上げ Aug 6, 2024 から Taiyuan Satellite Launch Center

Loading…

次のパス (今後24時間)

TLE

最新Source: Space-Track

元期: Sep 14, 2026, 10:49 UTC

1 60767U 24140ES  26257.45095951  .00000613  00000-0  29303-3 0  9997
2 60767  88.9837 264.0368 0058612 266.8149  92.6333 14.17117033108023

AllMySatでCZ-6A DEBをリアルタイム追跡

Download on the App Store